KF6ILA Weather Reports


time (UTC)temp
C
wind
direction
speed
KPH
gust
KPH
rain 1hr
cm
rain 24hr
cm
rain mn
cm
humidity
%
barometer
mb
20260509205008 25 273 20.9 32.2 0.00 0.00 0.00 34 1014.5
20260509204014 25 241 20.9 32.2 0.00 0.00 0.00 33 1014.5
20260509203517 25 270 17.7 30.6 0.00 0.00 0.00 36 1014.5
20260509195541 25 252 16.1 30.6 0.00 0.00 0.00 35 1014.9
20260509195044 25 238 17.7 30.6 0.00 0.00 0.00 33 1015.0
20260509194050 25 252 16.1 24.1 0.00 0.00 0.00 37 1015.1
20260509191605 25 253 16.1 0.0 0.00 0.00 0.00 38 1015.2
20260509184126 24 276 16.1 27.4 0.00 0.00 0.00 39 1015.3
20260509182635 23 239 17.7 27.4 0.00 0.00 0.00 36 1015.2
20260509181144 23 256 14.5 24.1 0.00 0.00 0.00 39 1015.3
20260509180647 23 256 17.7 24.1 0.00 0.00 0.00 37 1015.3
20260509175156 22 264 14.5 22.5 0.00 0.00 0.00 40 1015.3
20260509173705 22 269 16.1 24.1 0.00 0.00 0.00 42 1015.2
20260509173208 22 268 17.7 24.1 0.00 0.00 0.00 41 1015.2
20260509171717 -17 256 12.9 22.5 0.00 0.00 0.00
20260509170226 21 254 12.9 25.7 0.00 0.00 0.00 44 1015.1
20260509165232 21 259 14.5 22.5 0.00 0.00 0.00 44 1015.0
20260509164735 21 259 14.5 22.5 0.00 0.00 0.00 45 1015.0
20260509163744 21 248 14.5 25.7 0.00 0.00 0.00 45 1014.0
20260509162250 20 250 14.5 27.4 0.00 0.00 0.00 47 1014.1
20260509161753 20 257 17.7 27.4 0.00 0.00 0.00 47 1014.1
20260509160302 20 255 17.7 25.7 0.00 0.00 0.00 46 1013.9
20260509154314 20 258 14.5 24.1 0.00 0.00 0.00 42 1013.8
20260509153817 19 256 14.5 19.3 0.00 0.00 0.00 41 1013.8
20260509152823 18 246 12.9 22.5 0.00 0.00 0.00 49 1013.8
20260509152326 18 249 14.5 20.9 0.00 0.00 0.00 48 1013.8
20260509151829 18 240 12.9 22.5 0.00 0.00 0.00 51 1013.7
20260509151332 18 244 11.3 24.1 0.00 0.00 0.00 52 1013.8
20260509150338 17 245 17.7 25.7 0.00 0.00 0.00 49 1013.7
20260509145841 17 259 14.5 24.1 0.00 0.00 0.00 45 1013.9
20260509143356 16 246 17.7 25.7 0.00 0.00 0.00 50 1013.6
20260509140414 16 262 16.1 25.7 0.00 0.00 0.00 53 1013.6
20260509135420 15 258 16.1 25.7 0.00 0.00 0.00 51 1013.5
20260509134426 15 262 16.1 24.1 0.00 0.00 0.00 51 1013.5
20260509133929 15 258 14.5 24.1 0.00 0.00 0.00 52 1013.4
20260509125953 15 258 19.3 32.2 0.00 0.00 0.00 52 1013.4
20260509125456 15 256 20.9 27.4 0.00 0.00 0.00 50 1013.3
20260509124959 15 246 17.7 29.0 0.00 0.00 0.00 48 1013.2
20260509124502 15 246 20.9 32.2 0.00 0.00 0.00 45 1013.3
20260509124005 15 250 22.5 32.2 0.00 0.00 0.00 42 1013.2
20260509123508 15 242 20.9 30.6 0.00 0.00 0.00 41 1013.1
20260509121520 16 242 22.5 32.2 0.00 0.00 0.00 35 1013.2
20260509115532 16 237 20.9 32.2 0.00 0.00 0.00 26 1013.1
20260509115035 17 242 24.1 33.8 0.00 0.00 0.00 24 1013.1
20260509114538 17 245 22.5 33.8 0.00 0.00 0.00 23 1013.1
20260509113047 16 243 20.9 29.0 0.00 0.00 0.00 24 1013.1
20260509112550 16 246 19.3 29.0 0.00 0.00 0.00 23 1013.2
20260509112053 16 243 19.3 29.0 0.00 0.00 0.00 23 1013.2
20260509110602 16 246 20.9 33.8 0.00 0.00 0.00 26 1013.2
20260509105608 16 245 22.5 30.6 0.00 0.00 0.00 29 1013.1
20260509105111 16 243 20.9 33.8 0.00 0.00 0.00 31 1013.2
20260509104117 16 243 20.9 32.2 0.00 0.00 0.00 34 1013.1
20260509103620 16 241 22.5 33.8 0.00 0.00 0.00 34 1013.2
20260509103123 16 240 24.1 33.8 0.00 0.00 0.00 36 1013.2
20260509102626 16 243 24.1 33.8 0.00 0.00 0.00 38 1013.2
20260509101632 15 241 24.1 33.8 0.00 0.00 0.00 42 1013.3
20260509095644 16 246 24.1 33.8 0.00 0.00 0.00 43 1013.3
20260509090217 15 243 25.7 35.4 0.00 0.00 0.00 49 1013.6
20260509085720 15 243 24.1 35.4 0.00 0.00 0.00 50 1013.6
20260509084229 15 251 25.7 37.0 0.00 0.00 0.00 49 1013.8
20260509081247 15 253 25.7 35.4 0.00 0.00 0.00 48 1013.9
20260509080253 15 252 25.7 35.4 0.00 0.00 0.00 46 1013.8
20260509075756 16 245 25.7 35.4 0.00 0.00 0.00 43 1013.9
20260509074802 16 242 32.2 38.6 0.00 0.00 0.00 39 1014.0
20260509074305 16 242 30.6 38.6 0.00 0.00 0.00 38 1014.1
20260509073808 16 237 24.1 38.6 0.00 0.00 0.00 41 1014.1
20260509072814 16 240 29.0 38.6 0.00 0.00 0.00 39 1014.1
20260509071820 17 238 25.7 35.4 0.00 0.00 0.00 32 1014.2
20260509071325 17 242 25.7 37.0 0.00 0.00 0.00 30 1014.2
20260509065336 17 241 25.7 35.4 0.00 0.00 0.00 31 1014.2
20260509064838 17 242 24.1 35.4 0.00 0.00 0.00 29 1014.3
20260509062353 17 244 25.7 35.4 0.00 0.00 0.00 31 1014.4
20260509061359 17 251 24.1 33.8 0.00 0.00 0.00 31 1014.5
20260509055908 17 257 22.5 32.2 0.00 0.00 0.00 28 1014.6
20260509054417 17 254 22.5 33.8 0.00 0.00 0.00 27 1014.7
20260509053423 17 254 24.1 32.2 0.00 0.00 0.00 27 1014.8
20260509052430 17 254 22.5 32.2 0.00 0.00 0.00 26 1014.9
20260509051435 18 255 24.1 35.4 0.00 0.00 0.00 26 1014.9
20260509045447 17 252 22.5 33.8 0.00 0.00 0.00 26 1014.9
20260509044453 17 257 22.5 35.4 0.00 0.00 0.00 27 1014.9
20260509043459 17 258 25.7 33.8 0.00 0.00 0.00 29 1014.9
20260509043002 17 261 22.5 33.8 0.00 0.00 0.00 30 1014.9
20260509042008 17 258 22.5 32.2 0.00 0.00 0.00 31 1014.7
20260509041014 17 258 20.9 33.8 0.00 0.00 0.00 33 1014.6
20260509040517 17 261 20.9 33.8 0.00 0.00 0.00 34 1014.5
20260509040020 17 261 20.9 32.2 0.00 0.00 0.00 37 1014.5
20260509035523 17 261 20.9 32.2 0.00 0.00 0.00 39 1014.5
20260509033038 17 261 20.9 33.8 0.00 0.00 0.00 45 1014.1
20260509032541 17 259 22.5 33.8 0.00 0.00 0.00 46 1014.2
20260509032044 17 262 20.9 32.2 0.00 0.00 0.00 47 1014.2
20260509031547 17 260 24.1 32.2 0.00 0.00 0.00 48 1014.0
20260509025102 17 263 20.9 33.8 0.00 0.00 0.00 49 1014.7
20260509024108 17 261 22.5 32.2 0.00 0.00 0.00 49 1014.7
20260509023611 17 262 22.5 32.2 0.00 0.00 0.00 50 1014.7
20260509022617 18 260 22.5 32.2 0.00 0.00 0.00 50 1014.6
20260509020629 19 260 19.3 30.6 0.00 0.00 0.00 51 1014.7
20260509014144 20 269 24.1 37.0 0.00 0.00 0.00 48 1014.7
20260509013150 20 263 25.7 37.0 0.00 0.00 0.00 46 1014.7
20260509012156 21 262 20.9 33.8 0.00 0.00 0.00 43 1014.8
20260509011659 21 269 24.1 33.8 0.00 0.00 0.00 41 1014.7
20260509011202 21 269 17.7 35.4 0.00 0.00 0.00 42 1014.7
20260509010705 21 268 24.1 37.0 0.00 0.00 0.00 40 1014.7
20260509005711 21 280 24.1 45.1 0.00 0.00 0.00 38 1014.7
20260509004220 22 268 30.6 43.5 0.00 0.00 0.00 35 1013.9
20260509003723 22 283 27.4 43.5 0.00 0.00 0.00 33 1014.1
20260509000741 23 283 30.6 41.8 0.00 0.00 0.00 24 1015.1
20260509000244 23 290 20.9 41.8 0.00 0.00 0.00 26 1015.2
20260508235747 23 281 25.7 45.1 0.00 0.00 0.00 27 1015.2
20260508234256 23 273 22.5 38.6 0.00 0.00 0.00 29 1014.3
20260508231811 23 260 20.9 38.6 0.00 0.00 0.00 32 1015.4
20260508230320 23 277 22.5 38.6 0.00 0.00 0.00 35 1015.3
20260508225823 23 269 19.3 41.8 0.00 0.00 0.00 36 1015.4
20260508223338 23 253 29.0 43.5 0.00 0.00 0.00 37 1015.7
20260508215859 24 269 22.5 38.6 0.00 0.00 0.00 37 1015.9
20260508212917 24 273 25.7 38.6 0.00 0.00 0.00 37 1016.2
20260508212420 24 276 20.9 0.0 0.00 0.00 0.00 36 1016.2
20260508210432 23 285 25.7 40.2 0.00 0.00 0.00 39 1016.4